TimeCST,TemperatureF,Dew PointF,Humidity,Sea Level PressureIn,VisibilityMPH,Wind Direction,Wind SpeedMPH,Gust SpeedMPH,PrecipitationIn,Events,Conditions,WindDirDegrees,DateUTC
12:52 AM,12.9,8.1,81,30.17,10.0,ENE,3.5,-,N/A,,Overcast,60,2013-02-22 06:52:00
1:52 AM,12.0,8.1,84,30.16,10.0,Calm,Calm,-,N/A,,Overcast,0,2013-02-22 07:52:00
2:52 AM,10.9,7.0,84,30.15,10.0,East,3.5,-,N/A,,Partly Cloudy,90,2013-02-22 08:52:00
3:52 AM,12.0,8.1,84,30.14,10.0,East,4.6,-,N/A,,Overcast,90,2013-02-22 09:52:00
4:52 AM,12.0,7.0,80,30.14,10.0,East,4.6,-,N/A,,Overcast,90,2013-02-22 10:52:00
5:52 AM,12.2,6.8,79,30.03,10.0,Calm,Calm,-,N/A,,Overcast,0,2013-02-22 11:52:00
6:52 AM,10.0,6.1,84,30.12,10.0,Calm,Calm,-,N/A,,Mostly Cloudy,0,2013-02-22 12:52:00
7:52 AM,9.0,5.0,84,30.12,10.0,ENE,4.6,-,N/A,,Scattered Clouds,60,2013-02-22 13:52:00
8:52 AM,10.9,6.1,81,30.12,10.0,Calm,Calm,-,N/A,,Scattered Clouds,0,2013-02-22 14:52:00
9:52 AM,14.0,7.0,74,30.10,10.0,SSE,3.5,-,N/A,,Clear,150,2013-02-22 15:52:00
10:52 AM,18.0,9.0,68,30.09,10.0,SSE,3.5,-,N/A,,Clear,160,2013-02-22 16:52:00
11:52 AM,19.9,10.9,68,30.07,10.0,Calm,Calm,-,N/A,,Partly Cloudy,0,2013-02-22 17:52:00
12:52 PM,21.9,12.0,66,30.05,10.0,SSE,6.9,-,N/A,,Clear,150,2013-02-22 18:52:00
1:52 PM,25.0,15.1,66,30.02,10.0,SSE,5.8,-,N/A,,Clear,150,2013-02-22 19:52:00
2:52 PM,28.0,16.0,61,29.99,10.0,SW,4.6,-,N/A,,Clear,230,2013-02-22 20:52:00
3:52 PM,28.0,18.0,66,29.98,10.0,SSE,3.5,-,N/A,,Clear,160,2013-02-22 21:52:00
4:52 PM,28.0,18.0,66,29.97,10.0,SSE,5.8,-,N/A,,Clear,150,2013-02-22 22:52:00
5:52 PM,25.0,18.0,75,29.96,10.0,SE,8.1,-,N/A,,Clear,130,2013-02-22 23:52:00
6:52 PM,18.0,12.9,81,29.96,10.0,East,4.6,-,N/A,,Clear,100,2013-02-23 00:52:00
7:52 PM,17.1,12.0,81,29.96,10.0,East,5.8,-,N/A,,Clear,80,2013-02-23 01:52:00
8:52 PM,14.0,10.0,84,29.96,10.0,ENE,8.1,-,N/A,,Clear,70,2013-02-23 02:52:00
9:52 PM,12.9,9.0,84,29.94,10.0,ENE,8.1,-,N/A,,Clear,60,2013-02-23 03:52:00
10:52 PM,10.9,8.1,88,29.93,10.0,NE,8.1,-,N/A,,Clear,50,2013-02-23 04:52:00
11:52 PM,9.0,6.1,88,29.91,10.0,ENE,6.9,-,N/A,,Clear,60,2013-02-23 05:52:00